Regional Weather Roundup
Issued by NWS

Home | Current Version | Previous Version | Graphics & Text | Print | Product List | Glossary On
Versions: 1 2 3 4 5 6 7 8 9 10 11 12 13 14 15 16 17 18 19 20 21 22 23 24 25 26 27 28 29 30 31 32 33 34 35 36 37 38 39 40 41 42 43 44 45 46 47 48 49 50
000
ASUS43 KMPX 261210
RWRMN
WEATHER ROUNDUP FOR MINNESOTA
NATIONAL WEATHER SERVICE TWIN CITIES/CHANHASSEN MN
700 AM CDT MON SEP 26 2016


NOTE: "FAIR" INDICATES FEW OR NO CLOUDS BELOW 12,000 FEET WITH NO
SIGNIFICANT WEATHER AND/OR OBSTRUCTIONS TO VISIBILITY. N/A MEANS
CURRENT SKY AND/OR WEATHER CONDITIONS ARE NOT AVAILABLE.

MNZ060>063-068>070-261300-
   Twin Cities Metro

CITY           SKY/WX    TMP DP  RH WIND       PRES   REMARKS
TWIN CITIES    PTCLDY    51  40  65 W15       29.94R
6HR MIN TEMP:  51; 6HR MAX TEMP:  56;

ST PAUL        CLEAR     52  40  63 W15G23    29.94R
CRYSTAL        PTCLDY    51  38  60 W15       29.93R
BLAINE         PTCLDY    52  43  71 W10       29.93R
LAKEVILLE      CLEAR     48  39  71 W8G16     29.96R
EDEN PRAIRIE   CLEAR     51  40  65 W12G18    29.95R
6HR MIN TEMP:  50; 6HR MAX TEMP:  53;

LAKEVILLE      CLEAR     48  39  71 W8G16     29.96R
SOUTH ST PAUL  CLEAR     51  40  65 W12G18    29.94R
LAKE ELMO      FAIR      50  41  71 W12G18    29.93R
$$
MNZ001>005-007-008-013>017-022>024-027-028-261300-
   Northwest Minnesota

CITY           SKY/WX    TMP DP  RH WIND       PRES   REMARKS
BEMIDJI        MOCLDY    46  38  73 W16G26    29.84S
HALLOCK        CLEAR     48  39  71 W15G21    29.88S
ROSEAU         MOCLDY    48  43  81 W14G21    29.80S
WARROAD        CLOUDY    48  45  87 W18G26    29.77S
THIEF RVR FALL MOCLDY    47  39  74 W17       29.89R
CROOKSTON      PTCLDY    46  39  76 NW15      29.93R
FOSSTON        CLEAR     45  37  76 W16G22    29.89S
DETROIT LAKES  CLEAR     46  37  71 NW18      29.94S
MOORHEAD       CLEAR     46  36  66 W16       29.98S
PARK RAPIDS    PTCLDY    46  37  71 W15       29.88S
MAHNOMEN       FAIR      44  38  78 W17       29.91S
$$
MNZ006-009>011-018-025>026-261300-
   North Central Minnesota

CITY           SKY/WX    TMP DP  RH WIND       PRES   REMARKS
BAUDETTE       CLOUDY    47  43  86 W16G25    29.73S
FLAG ISLAND    CLOUDY    48  45  87 W25G31    29.70S
INTL FALLS     LGT RAIN  49  46  90 W16G29    29.66S
6HR MIN TEMP:  49; 6HR MAX TEMP:  51; 6HR PCP:  0.23;

WASKISH        PTCLDY    50  45  81 W18G30    29.77S
BIG FORK       RAIN      48  45  87 W8        29.74S
GRAND RAPIDS   CLOUDY    49  43  80 W15G23    29.78S
ORR            CLOUDY    48  45  87 W13G24    29.64R
COOK           DRIZZLE   48  46  93 W16G26    29.67S
WALKER         PTSUNNY   46  39  77 W12G22    29.84S
$$
MNZ012-019>021-037-261300-
   Northeast Minnesota

CITY           SKY/WX    TMP DP  RH WIND       PRES   REMARKS
DULUTH         CLOUDY    49  46  90 W20G31    29.70S
6HR MIN TEMP:  49; 6HR MAX TEMP:  50; 6HR PCP:  0.12;

ELY            DRIZZLE   48  46  93 W12G22    29.60S
HIBBING        LGT RAIN  47  44  90 W14G22    29.71R
EVELETH        LGT RAIN  48  46  90 W16G26    29.69S
DULUTH HARBOR  LGT RAIN  52  48  87 W16G26    29.72S
TWO HARBORS    DRIZZLE   54  48  82 W13G21    29.64S
SILVER BAY     DRIZZLE   50  48  93 W9        29.59S
GRAND MARAIS     N/A     53  52  96 W8        29.52F
G MARAIS ARPRT LGT RAIN  48  45  87 W7        29.53S
$$
MNZ029>031-032-039>041-046>048-054>057-064-261300-
   West Central Minnesota

CITY           SKY/WX    TMP DP  RH WIND       PRES   REMARKS
FERGUS FALLS   CLEAR     43  37  81 W13       30.01S
MORRIS         CLEAR     46  37  71 W14       30.00S
ALEXANDRIA     CLEAR     46  38  73 W15G23    29.98S
ELBOW LAKE     FAIR      45  37  72 NW13G20   30.00S
GLENWOOD       CLEAR     45  37  76 W15       29.98F
BENSON         CLEAR     48  36  61 NW14G20   30.01F
MADISON          N/A     48  37  66 W9        30.06S
WILLMAR        FAIR      46  39  76 W9        30.02S
$$
MNZ033>034-036-042>043-049>051-058-059-261300-
   Central Minnesota

CITY           SKY/WX    TMP DP  RH WIND       PRES   REMARKS
ST CLOUD       CLEAR     49  39  68 W15G25    29.93R
6HR MIN TEMP:  48; 6HR MAX TEMP:  52; 6HR PCP: TRACE;

SAUK CENTRE    FAIR      45  38  77 W10       29.96F
PAYNESVILLE    CLEAR     46  38  75 W12       29.98S
AITKIN         PTCLDY    48  39  71 W8G17     29.82S
PINE RIVER     MOCLDY    46  39  76 W7        29.89S
BRAINERD       PTCLDY    48  39  71 W13G25    29.88R
STAPLES        CLEAR     45  37  76 W12G17    29.91S
LITTLE FALLS   CLEAR     46  36  66 W12G18    29.92S
LITCHFIELD     CLEAR     48  41  76 W12       29.99S
BUFFALO        PTCLDY    49  40  70 W10G18    29.97R
MAPLE LAKE     PTCLDY    50  41  70 W8        29.96S
HUTCHINSON     CLEAR     48  40  74 W13       30.01R
$$
MNZ037-044-045-052-053-261300-
   East Central Minnesota

CITY           SKY/WX    TMP DP  RH WIND       PRES   REMARKS
PRINCETON        N/A     50  41  71 W13G20    29.91S
MORA           PTCLDY    46  39  76 W10       29.88S
CAMBRIDGE      PTCLDY    52  39  62 W9        29.88S
MOOSE LAKE     CLOUDY    50  43  76 W10G20    29.78R
HINCKLEY       FAIR      48  43  81 W14       29.84R
CLOQUET        MOCLDY    48  43  81 W15G25    29.74S
MCGREGOR       PTCLDY    48  43  81 W12       29.81R
$$
MNZ071>073-080-081-089-090-097-098-261300-
   Southwest Minnesota

CITY           SKY/WX    TMP DP  RH WIND       PRES   REMARKS
MONTEVIDEO     CLEAR     46  37  71 NW12      30.06R
GRANITE FALLS  CLEAR     47  39  74 W12       30.06S
CANBY          CLEAR     49  37  63 NW16      30.09S
MARSHALL       CLEAR     48  36  63 W17       30.07F
REDWOOD FALLS  CLEAR     48  37  65 W13       30.04S
OLIVIA         CLEAR     46  37  71 W12       30.02S
PIPESTONE      CLEAR     43  36  75 W6        30.12F
WINDOM         CLEAR     46  37  71 W9        30.09S
WORTHINGTON    CLEAR     45  36  70 W13       30.12S
JACKSON        CLEAR     46  34  61 W12       30.10S
TRACY          CLEAR     49  38  67 W7        30.08F
$$
MNZ065>067-074>077-082>085-091>093-261300-
   South Central Minnesota

CITY           SKY/WX    TMP DP  RH WIND       PRES   REMARKS
MANKATO        CLEAR     50  38  63 W15G23    30.02S
NEW ULM        CLEAR     48  37  66 W16G23    30.03S
ST JAMES       CLEAR     48  37  66 W13       30.07R
FAIRMONT       CLEAR     49  38  65 W15       30.08R
GLENCOE        CLEAR     49  42  76 W10G20    29.99R
FARIBAULT      CLEAR     52  39  62 W13G23    29.99S
OWATONNA       CLEAR     48  39  71 W10       30.00S
WASECA         CLEAR     46  37  71 W9        30.03S
ALBERT LEA     CLEAR     48  39  71 W8        30.03S
$$
MNZ078>079-086>088-094>096-261300-
   Southeast Minnesota

CITY           SKY/WX    TMP DP  RH WIND       PRES   REMARKS
ROCHESTER      CLEAR     48  40  73 W13G23    29.99R
6HR MIN TEMP:  48; 6HR MAX TEMP:  52;

RED WING       CLEAR     52  41  66 W9G16     29.93R
STANTON        CLEAR     50  40  68 W10       29.96R
DODGE CENTER   CLEAR     46  39  76 W12       29.99S
WINONA         CLEAR     54  43  66 W12G18    29.95S
AUSTIN         CLEAR     48  37  66 W12G17    30.01S
PRESTON        CLEAR     47  39  74 W12       30.00S
$$
ABBREVIATIONS USED IN REMARKS
   TC - TEMPERATURES IN CELSIUS
  WCI - WIND CHILL INDEX
   HX - HEAT INDEX
  VSB - VISIBILITY
$$




USA.gov is the U.S. government's official web portal to all federal, state and local government web resources and services.